This is the latest recevied weather packets stored in our database for station/object KE9DBJ-13. If no packets are shown the sender has not sent any weather packets the latest 10 day(s).
| Time | Temp. | Humidity | Pressure | Rain* | Wind** | Luminosity | Snow |
|---|---|---|---|---|---|---|---|
| 1787412003 | 27.22° C | 72% | 1012.5 hPa | 0 mm | - | - | - |
| 1787411403 | 27.22° C | 73% | 1012.6 hPa | 0 mm | - | - | - |
| 1787410803 | 26.67° C | 74% | 1012.6 hPa | 0 mm | - | - | - |
| 1787410203 | 26.11° C | 77% | 1012.6 hPa | 0 mm | - | - | - |
| 1787409603 | 25.56° C | 80% | 1012.7 hPa | 0 mm | - | - | - |
| 1787409003 | 24.44° C | 84% | 1012.8 hPa | 0 mm | - | - | - |
| 1787408403 | 23.89° C | 85% | 1013 hPa | 0 mm | - | - | - |
| 1787407802 | 23.33° C | 86% | 1013.2 hPa | 0 mm | - | - | - |
| 1787407202 | 22.78° C | 86% | 1013.4 hPa | 0 mm | - | - | - |
| 1787406602 | 21.67° C | 88% | 1013.5 hPa | 0 mm | - | - | - |
| 1787406002 | 21.67° C | 89% | 1013.8 hPa | 0 mm | - | - | - |
| 1787405402 | 21.11° C | 90% | 1013.8 hPa | 0 mm | - | - | - |
| 1787404802 | 20.56° C | 91% | 1013.8 hPa | 0 mm | - | - | - |
| 1787404202 | 20.56° C | 92% | 1013.8 hPa | 0 mm | - | - | - |
| 1787403603 | 20° C | 92% | 1014 hPa | 0 mm | - | - | - |
| 1787403003 | 19.44° C | 92% | 1014.3 hPa | 0 mm | - | - | - |
| 1787402403 | 19.44° C | 92% | 1014.5 hPa | 0 mm | - | - | - |
| 1787401803 | 19.44° C | 93% | 1014.4 hPa | 0 mm | - | - | - |
| 1787401203 | 18.33° C | 93% | 1014.4 hPa | 0 mm | - | - | - |
| 1787400603 | 18.33° C | 93% | 1014.2 hPa | 0 mm | - | - | - |
| 1787400003 | 18.33° C | 93% | 1014 hPa | 0 mm | - | - | - |
| 1787399402 | 17.78° C | 93% | 1014 hPa | 0 mm | - | - | - |
| 1787398802 | 17.78° C | 93% | 1013.9 hPa | 0 mm | - | - | - |
| 1787398202 | 17.78° C | 93% | 1013.7 hPa | 0 mm | - | - | - |
| 1787397602 | 17.78° C | 93% | 1013.7 hPa | 0 mm | - | - | - |
* Rain latest hour (hover to see other rain measurements)
** Current wind speed in m/s (hover to see current wind gust speed)